7 * 24
多渠道服务支持
STARLINK-32310是美国SpaceX星链星座的卫星,于2024年10月26日发射,是星链低轨互联网星座的组网卫星之一。星链旨在为全球提供高速卫星互联网接入服务,该卫星延续星链设计,运行于近地轨道,承担宽带通信、信号转发任务,持续补充星座的全球覆盖能力与服务容量。
美国
(US)
| 数据来源 | 国际轨道数据 |
| 星历时间: | 2026-09-11T21:30:24+0800 13小时前 查看轨道信息 |
| 半长轴: | 6848.841km |
| 偏心率: | 0.0001165 |
| 轨道倾角: | 53.159° |
| 近地点辐角 | 73.023° |
| 升交点赤经 | 306.303° |
| 平近点角 | 287.090° |
| 近地点: | 469.906km |
| 远地点: | 471.502km |
| 周期: | 94.012分钟 |
| 每日圈数: | 15.317123 |